| time (UTC) | temp C | wind direction | speed KPH | gust KPH | rain 1hr cm | rain 24hr cm | rain mn cm | humidity % | barometer mb |
| 20260502151518 | 17 | 23 | 0.0 | 11.3 | 0.00 | 3.10 | 0.00 | 81 | 1020.8 |
| 20260502140105 | 12 | 15 | 0.0 | 8.0 | 0.00 | 3.99 | 0.00 | 96 | 1020.7 |
| 20260502123048 | 11 | 4 | 0.0 | 4.8 | 0.00 | 7.52 | 0.00 | 96 | 1019.3 |
| 20260502121548 | 11 | 30 | 0.0 | 1.6 | 0.00 | 7.52 | 0.00 | 96 | 1019.1 |
| 20260502114550 | 11 | 10 | 0.0 | 3.2 | 0.00 | 8.31 | 0.00 | 96 | 1018.8 |
| 20260502113043 | 11 | 8 | 0.0 | 3.2 | 0.00 | 8.31 | 0.00 | 96 | 1018.7 |
| 20260502111543 | 11 | 9 | 0.0 | 1.6 | 0.00 | 8.31 | 0.00 | 96 | 1018.6 |
| 20260502110043 | 11 | 21 | 0.0 | 3.2 | 0.00 | 8.31 | 0.00 | 96 | 1018.3 |
| 20260502104540 | 11 | 358 | 0.0 | 3.2 | 0.00 | 8.69 | 0.00 | 96 | 1018.3 |
| 20260502103038 | 11 | 5 | 0.0 | 3.2 | 0.00 | 8.69 | 0.00 | 96 | 1018.2 |
| 20260502101543 | 11 | 23 | 0.0 | 3.2 | 0.00 | 8.69 | 0.00 | 96 | 1018.0 |
| 20260502091527 | 11 | 2 | 0.0 | 3.2 | 0.00 | 9.32 | 0.00 | 96 | 1016.9 |
| 20260502071518 | 12 | 350 | 0.0 | 6.4 | 0.00 | 9.86 | 0.00 | 96 | 1016.4 |
| 20260502070017 | 12 | 352 | 0.0 | 4.8 | 0.00 | 9.86 | 0.00 | 96 | 1016.7 |
| 20260502064534 | 12 | 30 | 0.0 | 6.4 | 0.00 | 10.01 | 0.00 | 96 | 1016.3 |
| 20260502063017 | 12 | 360 | 1.6 | 9.7 | 0.00 | 10.01 | 0.00 | 96 | 1016.2 |
| 20260502061514 | 12 | 27 | 1.6 | 8.0 | 0.00 | 10.01 | 0.00 | 96 | 1016.1 |
| 20260502060014 | 12 | 349 | 3.2 | 8.0 | 0.00 | 10.01 | 0.00 | 96 | 1016.2 |
| 20260502054512 | 12 | 35 | 0.0 | 6.4 | 0.00 | 10.19 | 0.00 | 96 | 1016.1 |
| 20260502053010 | 12 | 38 | 3.2 | 9.7 | 0.00 | 10.19 | 0.00 | 96 | 1016.4 |
| 20260502051508 | 12 | 29 | 0.0 | 9.7 | 0.00 | 10.19 | 0.00 | 96 | 1016.2 |
| 20260502050014 | 12 | 346 | 0.0 | 12.9 | 0.00 | 10.19 | 0.00 | 96 | 1016.2 |
| 20260502044508 | 12 | 310 | 1.6 | 12.9 | 0.00 | 10.29 | 10.19 | 96 | 1016.2 |
| 20260502043004 | 12 | 6 | 1.6 | 11.3 | 0.00 | 10.29 | 10.19 | 96 | 1016.0 |
| 20260502041503 | 12 | 13 | 1.6 | 11.3 | 0.00 | 10.29 | 10.19 | 96 | 1016.1 |
| 20260502040001 | 13 | 336 | 3.2 | 11.3 | 0.00 | 10.29 | 10.19 | 96 | 1016.2 |
| 20260502034600 | 13 | 11 | 1.6 | 8.0 | 0.00 | 10.29 | 10.19 | 96 | 1016.2 |
| 20260502033100 | 13 | 352 | 1.6 | 8.0 | 0.00 | 10.29 | 10.19 | 96 | 1016.3 |
| 20260502031626 | 12 | 5 | 0.0 | 9.7 | 0.00 | 10.29 | 10.19 | 96 | 1015.9 |
| 20260502030055 | 13 | 348 | 0.0 | 12.9 | 0.00 | 10.29 | 10.19 | 96 | 1015.6 |
| 20260502024552 | 13 | 356 | 1.6 | 9.7 | 0.03 | 10.29 | 10.19 | 96 | 1014.8 |
| 20260502023054 | 13 | 26 | 1.6 | 8.0 | 0.05 | 10.29 | 10.19 | 96 | 1014.5 |
| 20260502021548 | 13 | 11 | 1.6 | 6.4 | 0.08 | 10.29 | 10.19 | 96 | 1014.7 |
| 20260502020105 | 13 | 14 | 1.6 | 11.3 | 0.08 | 10.26 | 10.19 | 96 | 1014.6 |
| 20260502014551 | 13 | 334 | 1.6 | 9.7 | 0.10 | 10.26 | 10.19 | 96 | 1014.4 |
| 20260502013042 | 13 | 42 | 4.8 | 12.9 | 0.13 | 10.24 | 10.16 | 96 | 1013.7 |
| 20260502011541 | 13 | 3 | 0.0 | 6.4 | 0.13 | 10.19 | 10.13 | 96 | 1014.5 |
| 20260502010038 | 14 | 332 | 1.6 | 16.1 | 0.18 | 10.19 | 10.11 | 96 | 1013.5 |
| 20260502004536 | 15 | 35 | 3.2 | 12.9 | 0.25 | 10.16 | 10.08 | 96 | 1012.7 |
| 20260502003034 | 15 | 6 | 3.2 | 11.3 | 0.25 | 10.11 | 10.03 | 96 | 1013.4 |
| 20260502001555 | 15 | 1 | 1.6 | 8.0 | 0.33 | 10.06 | 9.98 | 96 | 1013.2 |
| 20260502000035 | 15 | 19 | 0.0 | 4.8 | 0.38 | 10.01 | 9.93 | 96 | 1012.7 |
| 20260501234532 | 15 | 2 | 0.0 | 3.2 | 0.48 | 9.91 | 9.83 | 96 | 1013.1 |
| 20260501233032 | 15 | 23 | 0.0 | 3.2 | 0.43 | 9.86 | 9.78 | 96 | 1012.7 |
| 20260501231534 | 15 | 296 | 0.0 | 0.0 | 0.30 | 9.73 | 9.65 | 96 | 1012.0 |
| 20260501230034 | 15 | 5 | 0.0 | 4.8 | 0.23 | 9.63 | 9.55 | 96 | 1012.1 |
| 20260501224530 | 15 | 119 | 0.0 | 12.9 | 0.10 | 9.42 | 9.35 | 96 | 1010.5 |
| 20260501223028 | 15 | 290 | 0.0 | 11.3 | 0.23 | 9.42 | 9.35 | 96 | 1010.0 |
| 20260501221527 | 15 | 297 | 0.0 | 12.9 | 0.33 | 9.42 | 9.35 | 96 | 1010.7 |
| 20260501220026 | 15 | 9 | 3.2 | 11.3 | 0.36 | 9.40 | 9.32 | 96 | 1011.9 |
| 20260501214526 | 15 | 24 | 0.0 | 6.4 | 0.33 | 9.32 | 9.25 | 96 | 1012.2 |
| 20260501213024 | 16 | 18 | 1.6 | 9.7 | 0.30 | 9.19 | 9.12 | 96 | 1011.9 |
| 20260501211525 | 16 | 15 | 0.0 | 8.0 | 0.33 | 9.09 | 9.02 | 96 | 1011.7 |
| 20260501210031 | 16 | 39 | 0.0 | 6.4 | 0.36 | 9.04 | 8.97 | 96 | 1010.0 |
| 20260501204523 | 16 | 358 | 1.6 | 9.7 | 0.33 | 8.99 | 8.92 | 96 | 1010.9 |
| 20260501203024 | 16 | 9 | 0.0 | 6.4 | 0.28 | 8.89 | 8.81 | 96 | 1010.5 |
| 20260501201522 | 16 | 33 | 0.0 | 8.0 | 0.20 | 8.76 | 8.69 | 96 | 1010.4 |
| 20260501200021 | 16 | 164 | 0.0 | 6.4 | 0.15 | 8.69 | 8.61 | 96 | 1010.9 |
| 20260501194523 | 16 | 8 | 1.6 | 8.0 | 0.15 | 8.66 | 8.59 | 96 | 1010.7 |
| 20260501193020 | 16 | 306 | 0.0 | 8.0 | 0.08 | 8.59 | 8.51 | 96 | 1010.4 |
| 20260501191520 | 16 | 339 | 0.0 | 4.8 | 0.08 | 8.56 | 8.48 | 96 | 1010.6 |
| 20260501190019 | 16 | 263 | 0.0 | 6.4 | 0.08 | 8.53 | 8.46 | 96 | 1009.5 |
| 20260501184518 | 16 | 52 | 0.0 | 3.2 | 0.08 | 8.51 | 8.43 | 96 | 1010.3 |
| 20260501183018 | 16 | 360 | 0.0 | 6.4 | 0.10 | 8.51 | 8.43 | 96 | 1009.4 |
| 20260501181522 | 16 | 359 | 3.2 | 14.5 | 0.10 | 8.48 | 8.41 | 96 | 1008.2 |
| 20260501180022 | 16 | 6 | 0.0 | 8.0 | 0.08 | 8.46 | 8.38 | 96 | 1008.8 |
| 20260501174512 | 17 | 30 | 0.0 | 11.3 | 0.08 | 8.43 | 8.36 | 96 | 1010.2 |
| 20260501173017 | 16 | 9 | 1.6 | 8.0 | 0.05 | 8.41 | 8.33 | 96 | 1011.5 |
| 20260501171514 | 16 | 354 | 0.0 | 3.2 | 0.18 | 8.38 | 8.31 | 96 | 1011.4 |
| 20260501170011 | 16 | 344 | 0.0 | 9.7 | 0.30 | 8.38 | 8.31 | 96 | 1011.3 |
| 20260501164510 | 16 | 14 | 0.0 | 9.7 | 0.51 | 8.36 | 8.28 | 96 | 1012.0 |
| 20260501163013 | 16 | 351 | 3.2 | 11.3 | 1.12 | 8.36 | 8.28 | 96 | 1012.5 |
| 20260501161511 | 16 | 294 | 4.8 | 14.5 | 1.02 | 8.20 | 8.13 | 96 | 1013.2 |
| 20260501160008 | 16 | 31 | 1.6 | 6.4 | 0.89 | 8.08 | 8.00 | 96 | 1013.3 |
| 20260501154506 | 16 | 21 | 1.6 | 11.3 | 0.69 | 7.82 | 7.75 | 96 | 1013.3 |